Time,TemperatureF,DewpointF,PressureIn,WindDirection,WindDirectionDegrees,WindSpeedMPH,WindSpeedGustMPH,Humidity,HourlyPrecipIn,Conditions,Clouds,dailyrainin,SoftwareType,DateUTC
2013-01-16 00:12:00,51.0,51.0,-100.00,North,352,2.0,6.0,100,0.00,,,0.11,,2013-01-16 06:12:00,
2013-01-16 00:22:00,51.0,51.0,-100.00,North,352,2.0,6.0,100,0.00,,,0.11,,2013-01-16 06:22:00,
2013-01-16 00:32:00,51.0,51.0,-100.00,North,352,2.0,6.0,100,0.00,,,0.11,,2013-01-16 06:32:00,
2013-01-16 00:43:00,51.0,51.0,-100.00,North,352,2.0,6.0,100,0.00,,,0.11,,2013-01-16 06:43:00,
2013-01-16 01:12:00,50.0,50.0,-100.00,North,3,2.0,7.0,100,0.01,,,0.07,,2013-01-16 07:12:00,
2013-01-16 01:22:00,50.0,50.0,-100.00,North,3,2.0,7.0,100,0.01,,,0.07,,2013-01-16 07:22:00,
2013-01-16 01:33:00,50.0,50.0,-100.00,North,3,2.0,7.0,100,0.01,,,0.07,,2013-01-16 07:33:00,
2013-01-16 01:42:00,50.0,50.0,-100.00,North,3,2.0,7.0,100,0.01,,,0.07,,2013-01-16 07:42:00,
2013-01-16 02:12:00,50.0,50.0,-100.00,NNW,337,2.0,5.0,100,0.00,,,0.06,,2013-01-16 08:12:00,
2013-01-16 02:22:00,50.0,50.0,-100.00,NNW,337,2.0,5.0,100,0.00,,,0.06,,2013-01-16 08:22:00,
2013-01-16 02:32:00,50.0,50.0,-100.00,NNW,337,2.0,5.0,100,0.00,,,0.06,,2013-01-16 08:32:00,
2013-01-16 02:42:00,50.0,50.0,-100.00,NNW,337,2.0,5.0,100,0.00,,,0.06,,2013-01-16 08:42:00,
2013-01-16 03:12:00,48.0,48.0,-100.00,NNE,15,3.0,6.0,100,0.00,,,0.05,,2013-01-16 09:12:00,
2013-01-16 03:22:00,48.0,48.0,-100.00,NNE,15,3.0,6.0,100,0.00,,,0.05,,2013-01-16 09:22:00,
2013-01-16 03:32:00,48.0,48.0,-100.00,NNE,15,3.0,6.0,100,0.00,,,0.05,,2013-01-16 09:32:00,
2013-01-16 03:42:00,48.0,48.0,-100.00,NNE,15,3.0,6.0,100,0.00,,,0.05,,2013-01-16 09:42:00,
2013-01-16 04:12:00,47.0,47.0,-100.00,NW,324,3.0,11.0,100,0.01,,,0.06,,2013-01-16 10:12:00,
2013-01-16 04:22:00,47.0,47.0,-100.00,NW,324,3.0,11.0,100,0.01,,,0.06,,2013-01-16 10:22:00,
2013-01-16 04:32:00,47.0,47.0,-100.00,NW,324,3.0,11.0,100,0.01,,,0.06,,2013-01-16 10:32:00,
2013-01-16 04:42:00,47.0,47.0,-100.00,NW,324,3.0,11.0,100,0.01,,,0.06,,2013-01-16 10:42:00,
2013-01-16 05:12:00,46.0,46.0,-100.00,NNE,18,2.0,7.0,100,0.12,,,0.18,,2013-01-16 11:12:00,
2013-01-16 05:22:00,46.0,46.0,-100.00,NNE,18,2.0,7.0,100,0.12,,,0.18,,2013-01-16 11:22:00,
2013-01-16 05:33:00,46.0,46.0,-100.00,NNE,18,2.0,7.0,100,0.12,,,0.18,,2013-01-16 11:33:00,
2013-01-16 05:42:00,46.0,46.0,-100.00,NNE,18,2.0,7.0,100,0.12,,,0.18,,2013-01-16 11:42:00,
2013-01-16 06:13:00,46.0,46.0,-100.00,NNE,27,1.0,6.0,100,0.05,,,0.22,,2013-01-16 12:13:00,
2013-01-16 06:22:00,46.0,46.0,-100.00,NNE,27,1.0,6.0,100,0.05,,,0.22,,2013-01-16 12:22:00,
2013-01-16 06:33:00,46.0,46.0,-100.00,NNE,27,1.0,6.0,100,0.05,,,0.22,,2013-01-16 12:33:00,
2013-01-16 06:43:00,46.0,46.0,-100.00,NNE,27,1.0,6.0,100,0.05,,,0.22,,2013-01-16 12:43:00,
2013-01-16 07:12:00,46.0,46.0,-100.00,North,4,2.0,6.0,100,0.00,,,0.22,,2013-01-16 13:12:00,
2013-01-16 07:22:00,46.0,46.0,-100.00,North,4,2.0,6.0,100,0.00,,,0.22,,2013-01-16 13:22:00,
2013-01-16 07:33:00,46.0,46.0,-100.00,North,4,2.0,6.0,100,0.00,,,0.22,,2013-01-16 13:33:00,
2013-01-16 07:43:00,46.0,46.0,-100.00,North,4,2.0,6.0,100,0.00,,,0.22,,2013-01-16 13:43:00,
2013-01-16 08:12:00,45.0,45.0,-100.00,NNE,28,3.0,9.0,100,0.00,,,0.22,,2013-01-16 14:12:00,
2013-01-16 08:23:00,45.0,45.0,-100.00,NNE,28,3.0,9.0,100,0.00,,,0.22,,2013-01-16 14:23:00,
2013-01-16 08:33:00,45.0,45.0,-100.00,NNE,28,3.0,9.0,100,0.00,,,0.22,,2013-01-16 14:33:00,
2013-01-16 08:42:00,45.0,45.0,-100.00,NNE,28,3.0,9.0,100,0.00,,,0.22,,2013-01-16 14:42:00,
2013-01-16 09:12:00,46.0,46.0,-100.00,North,9,3.0,11.0,99,0.00,,,0.22,,2013-01-16 15:12:00,
2013-01-16 09:23:00,46.0,46.0,-100.00,North,9,3.0,11.0,99,0.00,,,0.22,,2013-01-16 15:23:00,
2013-01-16 09:33:00,46.0,46.0,-100.00,North,9,3.0,11.0,99,0.00,,,0.22,,2013-01-16 15:33:00,
2013-01-16 09:43:00,46.0,46.0,-100.00,North,9,3.0,11.0,99,0.00,,,0.22,,2013-01-16 15:43:00,
2013-01-16 10:12:00,46.0,45.0,-100.00,NNE,27,3.0,9.0,95,0.00,,,0.22,,2013-01-16 16:12:00,
2013-01-16 10:22:00,46.0,45.0,-100.00,NNE,27,3.0,9.0,95,0.00,,,0.22,,2013-01-16 16:22:00,
2013-01-16 10:33:00,46.0,45.0,-100.00,NNE,27,3.0,9.0,95,0.00,,,0.22,,2013-01-16 16:33:00,
2013-01-16 10:42:00,46.0,45.0,-100.00,NNE,27,3.0,9.0,95,0.00,,,0.22,,2013-01-16 16:42:00,
2013-01-16 11:12:00,47.0,45.0,-100.00,NE,34,3.0,9.0,91,0.00,,,0.22,,2013-01-16 17:12:00,
2013-01-16 11:23:00,47.0,45.0,-100.00,NE,34,3.0,9.0,91,0.00,,,0.22,,2013-01-16 17:23:00,
2013-01-16 11:33:00,47.0,45.0,-100.00,NE,34,3.0,9.0,91,0.00,,,0.22,,2013-01-16 17:33:00,
2013-01-16 11:43:00,47.0,45.0,-100.00,NE,34,3.0,9.0,91,0.00,,,0.22,,2013-01-16 17:43:00,
2013-01-16 12:13:00,46.0,43.0,-100.00,WNW,295,4.0,9.0,89,0.00,,,0.22,,2013-01-16 18:13:00,
2013-01-16 12:23:00,46.0,43.0,-100.00,WNW,295,4.0,9.0,89,0.00,,,0.22,,2013-01-16 18:23:00,
2013-01-16 12:33:00,46.0,43.0,-100.00,WNW,295,4.0,9.0,89,0.00,,,0.22,,2013-01-16 18:33:00,
2013-01-16 12:42:00,46.0,43.0,-100.00,WNW,295,4.0,9.0,89,0.00,,,0.22,,2013-01-16 18:42:00,
2013-01-16 13:12:00,46.0,43.0,-100.00,North,3,3.0,10.0,90,0.00,,,0.22,,2013-01-16 19:12:00,
2013-01-16 13:23:00,46.0,43.0,-100.00,North,3,3.0,10.0,90,0.00,,,0.22,,2013-01-16 19:23:00,
2013-01-16 13:33:00,46.0,43.0,-100.00,North,3,3.0,10.0,90,0.00,,,0.22,,2013-01-16 19:33:00,
2013-01-16 13:43:00,46.0,43.0,-100.00,North,3,3.0,10.0,90,0.00,,,0.22,,2013-01-16 19:43:00,
2013-01-16 14:12:00,45.0,43.0,-100.00,NE,40,3.0,8.0,94,0.00,,,0.22,,2013-01-16 20:12:00,
2013-01-16 14:23:00,45.0,43.0,-100.00,NE,40,3.0,8.0,94,0.00,,,0.22,,2013-01-16 20:23:00,
2013-01-16 14:33:00,45.0,43.0,-100.00,NE,40,3.0,8.0,94,0.00,,,0.22,,2013-01-16 20:33:00,
2013-01-16 14:42:00,45.0,43.0,-100.00,NE,40,3.0,8.0,94,0.00,,,0.22,,2013-01-16 20:42:00,
2013-01-16 15:12:00,46.0,43.0,-100.00,NNW,330,3.0,9.0,88,0.00,,,0.22,,2013-01-16 21:12:00,
2013-01-16 15:22:00,46.0,43.0,-100.00,NNW,330,3.0,9.0,88,0.00,,,0.22,,2013-01-16 21:22:00,
2013-01-16 15:33:00,46.0,43.0,-100.00,NNW,330,3.0,9.0,88,0.00,,,0.22,,2013-01-16 21:33:00,
2013-01-16 15:43:00,46.0,43.0,-100.00,NNW,330,3.0,9.0,88,0.00,,,0.22,,2013-01-16 21:43:00,
2013-01-16 16:12:00,45.0,42.0,-100.00,ENE,61,2.0,7.0,89,0.00,,,0.22,,2013-01-16 22:12:00,
2013-01-16 16:23:00,45.0,42.0,-100.00,ENE,61,2.0,7.0,89,0.00,,,0.22,,2013-01-16 22:23:00,
2013-01-16 16:33:00,45.0,42.0,-100.00,ENE,61,2.0,7.0,89,0.00,,,0.22,,2013-01-16 22:33:00,
2013-01-16 16:43:00,45.0,42.0,-100.00,ENE,61,2.0,7.0,89,0.00,,,0.22,,2013-01-16 22:43:00,
2013-01-16 17:12:00,45.0,42.0,-100.00,NE,49,2.0,6.0,90,0.00,,,0.22,,2013-01-16 23:12:00,
2013-01-16 17:23:00,45.0,42.0,-100.00,NE,49,2.0,6.0,90,0.00,,,0.22,,2013-01-16 23:23:00,
2013-01-16 17:32:00,45.0,42.0,-100.00,NE,49,2.0,6.0,90,0.00,,,0.22,,2013-01-16 23:32:00,
2013-01-16 17:42:00,45.0,42.0,-100.00,NE,49,2.0,6.0,90,0.00,,,0.22,,2013-01-16 23:42:00,
2013-01-16 18:12:00,44.0,42.0,-100.00,West,263,4.0,6.0,93,0.00,,,0.22,,2013-01-17 00:12:00,
2013-01-16 18:22:00,44.0,42.0,-100.00,West,263,4.0,6.0,93,0.00,,,0.22,,2013-01-17 00:22:00,
2013-01-16 18:32:00,44.0,42.0,-100.00,West,263,4.0,6.0,93,0.00,,,0.22,,2013-01-17 00:32:00,
2013-01-16 18:42:00,44.0,42.0,-100.00,West,263,4.0,6.0,93,0.00,,,0.22,,2013-01-17 00:42:00,
2013-01-16 19:12:00,44.0,42.0,-100.00,WNW,293,3.0,9.0,94,0.00,,,0.22,,2013-01-17 01:12:00,
2013-01-16 19:22:00,44.0,42.0,-100.00,WNW,293,3.0,9.0,94,0.00,,,0.22,,2013-01-17 01:22:00,
2013-01-16 19:33:00,44.0,42.0,-100.00,WNW,293,3.0,9.0,94,0.00,,,0.22,,2013-01-17 01:33:00,
2013-01-16 19:42:00,44.0,42.0,-100.00,WNW,293,3.0,9.0,94,0.00,,,0.22,,2013-01-17 01:42:00,
2013-01-16 20:12:00,43.0,41.0,-100.00,WNW,285,4.0,8.0,93,0.00,,,0.20,,2013-01-17 02:12:00,
2013-01-16 20:22:00,43.0,41.0,-100.00,WNW,285,4.0,8.0,93,0.00,,,0.20,,2013-01-17 02:22:00,
2013-01-16 20:32:00,43.0,41.0,-100.00,WNW,285,4.0,8.0,93,0.00,,,0.20,,2013-01-17 02:32:00,
2013-01-16 20:42:00,43.0,41.0,-100.00,WNW,285,4.0,8.0,93,0.00,,,0.20,,2013-01-17 02:42:00,
2013-01-16 21:12:00,42.0,40.0,-100.00,WNW,288,3.0,9.0,94,0.00,,,0.20,,2013-01-17 03:12:00,
2013-01-16 21:22:00,42.0,40.0,-100.00,WNW,288,3.0,9.0,94,0.00,,,0.20,,2013-01-17 03:22:00,
2013-01-16 21:32:00,42.0,40.0,-100.00,WNW,288,3.0,9.0,94,0.00,,,0.20,,2013-01-17 03:32:00,
2013-01-16 21:42:00,42.0,40.0,-100.00,WNW,288,3.0,9.0,94,0.00,,,0.20,,2013-01-17 03:42:00,
2013-01-16 22:12:00,42.0,41.0,-100.00,WNW,297,3.0,11.0,95,0.00,,,0.19,,2013-01-17 04:12:00,
2013-01-16 22:22:00,42.0,41.0,-100.00,WNW,297,3.0,11.0,95,0.00,,,0.19,,2013-01-17 04:22:00,
2013-01-16 22:32:00,42.0,41.0,-100.00,WNW,297,3.0,11.0,95,0.00,,,0.19,,2013-01-17 04:32:00,
2013-01-16 22:42:00,42.0,41.0,-100.00,WNW,297,3.0,11.0,95,0.00,,,0.19,,2013-01-17 04:42:00,
2013-01-16 23:12:00,40.0,39.0,-100.00,West,281,4.0,10.0,96,0.00,,,0.19,,2013-01-17 05:12:00,
2013-01-16 23:22:00,40.0,39.0,-100.00,West,281,4.0,10.0,96,0.00,,,0.19,,2013-01-17 05:22:00,
2013-01-16 23:33:00,40.0,39.0,-100.00,West,281,4.0,10.0,96,0.00,,,0.19,,2013-01-17 05:33:00,
2013-01-16 23:42:00,40.0,39.0,-100.00,West,281,4.0,10.0,96,0.00,,,0.19,,2013-01-17 05:42:00,